Temp
-10 -10 -10 -10 -10 -10 -9 -9 -9 -9 -9 -9 -10 -10 -10 -10 -10 -9 -9 -9 -9 -9 -9 -10 -10 -10 -10 -10 -10 -10 -10 -10 -10 -11 -11 -11 -12 -12 -13 -13 -13 -13 -13 -13 -13
-10 -10 -10 -10 -10 -10 -10 -10 -10 -9 -9 -10 -10 -10 -10 -10 -10 -10 -9 -9 -9 -9 -10 -10 -10 -10 -10 -10 -10 -10 -10 -10 -11 -11 -11 -12 -13 -13 -13 -13 -13 -13 -12 -12 -12
-11 -11 -10 -10 -10 -10 -10 -10 -10 -10 -10 -10 -10 -10 -10 -10 -10 -10 -10 -9 -9 -9 -10 -10 -10 -10 -10 -10 -10 -10 -10 -10 -11 -11 -12 -12 -13 -12 -13 -13 -12 -13 -13 -14 -14
-11 -11 -11 -11 -11 -11 -10 -10 -10 -10 -10 -10 -10 -11 -10 -10 -10 -10 -10 -10 -9 -9 -10 -10 -10 -10 -10 -10 -10 -10 -10 -10 -10 -11 -12 -12 -12 -13 -12 -12 -12 -12 -13 -14 -14
-12 -11 -11 -11 -11 -11 -11 -11 -10 -10 -11 -11 -11 -11 -11 -11 -10 -10 -10 -10 -10 -9 -10 -10 -10 -10 -10 -10 -10 -10 -10 -10 -11 -11 -12 -12 -13 -12 -12 -12 -13 -13 -13 -14 -14
-12 -12 -12 -11 -11 -11 -11 -11 -11 -11 -11 -11 -11 -11 -11 -11 -11 -10 -10 -10 -10 -10 -10 -10 -10 -10 -11 -10 -10 -10 -10 -10 -11 -12 -12 -13 -12 -12 -12 -13 -13 -13 -14 -14 -14
-12 -12 -12 -12 -11 -11 -11 -11 -11 -11 -11 -11 -11 -11 -11 -11 -11 -11 -10 -10 -10 -10 -10 -10 -10 -10 -11 -10 -10 -10 -10 -11 -12 -12 -12 -13 -12 -12 -13 -13 -13 -13 -13 -14 -14
-13 -13 -12 -12 -12 -12 -12 -12 -12 -12 -12 -12 -12 -12 -11 -11 -11 -11 -10 -10 -10 -10 -10 -10 -10 -11 -11 -10 -10 -10 -10 -11 -11 -12 -12 -12 -13 -13 -13 -13 -13 -13 -13 -13 -14
-13 -13 -13 -12 -12 -12 -12 -12 -12 -12 -12 -12 -12 -12 -12 -12 -11 -11 -11 -10 -10 -10 -10 -10 -11 -11 -11 -10 -10 -11 -10 -11 -11 -12 -12 -13 -13 -13 -13 -13 -13 -13 -13 -14 -14
-14 -13 -13 -13 -13 -13 -12 -12 -12 -12 -12 -12 -12 -12 -12 -12 -11 -11 -11 -11 -10 -10 -11 -11 -11 -11 -11 -10 -10 -10 -10 -11 -11 -12 -12 -12 -13 -13 -13 -13 -13 -14 -14 -14 -14
-14 -14 -13 -13 -13 -13 -13 -13 -12 -12 -12 -12 -12 -12 -11 -11 -11 -11 -11 -11 -11 -11 -11 -11 -11 -11 -11 -11 -10 -11 -10 -11 -11 -12 -12 -12 -13 -13 -13 -13 -14 -14 -14 -14 -14
-14 -14 -14 -13 -13 -13 -13 -13 -13 -12 -12 -12 -12 -12 -11 -11 -11 -11 -11 -11 -11 -11 -11 -11 -11 -11 -11 -11 -10 -11 -10 -11 -11 -12 -12 -13 -13 -13 -13 -13 -14 -14 -14 -14 -15
-14 -14 -14 -14 -13 -13 -13 -13 -13 -12 -12 -12 -12 -12 -12 -11 -11 -11 -11 -11 -11 -11 -11 -11 -11 -11 -11 -11 -11 -11 -10 -10 -11 -12 -12 -13 -13 -13 -13 -13 -14 -14 -14 -14 -14
-15 -15 -15 -14 -14 -13 -13 -13 -13 -12 -12 -12 -12 -12 -12 -11 -11 -11 -11 -11 -11 -11 -11 -11 -11 -11 -11 -11 -11 -10 -10 -10 -11 -12 -12 -13 -13 -13 -13 -13 -13 -14 -14 -14 -14
-16 -15 -15 -14 -14 -14 -14 -13 -13 -13 -13 -12 -12 -12 -12 -12 -11 -11 -11 -11 -11 -11 -11 -12 -11 -11 -11 -11 -11 -11 -11 -11 -11 -11 -12 -12 -13 -13 -13 -13 -13 -14 -14 -14 -14
-16 -16 -15 -15 -15 -14 -14 -14 -13 -14 -12 -12 -12 -12 -12 -12 -12 -11 -11 -11 -11 -12 -11 -12 -11 -11 -11 -11 -11 -11 -11 -11 -11 -11 -12 -12 -13 -13 -13 -13 -13 -14 -14 -14 -14
-17 -16 -16 -15 -15 -14 -14 -14 -14 -13 -12 -12 -12 -12 -12 -12 -12 -12 -11 -11 -11 -11 -11 -12 -12 -11 -11 -11 -11 -11 -11 -11 -11 -11 -12 -12 -12 -12 -13 -13 -14 -13 -13 -14 -14
-17 -17 -16 -16 -15 -15 -14 -14 -14 -12 -12 -12 -12 -12 -12 -12 -12 -12 -12 -11 -11 -12 -12 -12 -12 -11 -11 -11 -11 -11 -11 -11 -11 -11 -11 -12 -12 -12 -12 -13 -13 -13 -13 -13 -13
-17 -17 -16 -16 -16 -15 -15 -14 -12 -13 -13 -13 -13 -12 -13 -12 -12 -12 -12 -12 -12 -12 -12 -12 -12 -11 -11 -11 -11 -11 -11 -11 -11 -11 -11 -12 -12 -12 -12 -13 -13 -13 -13 -13 -13
-17 -17 -17 -16 -16 -16 -15 -14 -13 -13 -12 -13 -13 -13 -13 -13 -12 -12 -12 -12 -12 -12 -12 -12 -12 -11 -11 -11 -11 -11 -11 -11 -11 -11 -11 -12 -12 -12 -12 -12 -12 -12 -13 -12 -13
-18 -17 -17 -16 -16 -16 -15 -14 -13 -14 -13 -14 -14 -13 -14 -13 -13 -12 -12 -12 -12 -12 -12 -12 -12 -12 -11 -11 -11 -11 -11 -11 -11 -11 -12 -12 -12 -12 -12 -13 -12 -13 -13 -13 -13
-18 -18 -17 -17 -17 -16 -15 -14 -14 -14 -14 -14 -13 -14 -14 -13 -13 -12 -12 -13 -12 -13 -13 -12 -12 -12 -12 -12 -11 -12 -11 -11 -11 -11 -12 -12 -12 -12 -12 -13 -13 -13 -13 -13 -13
-18 -18 -18 -17 -17 -16 -15 -15 -15 -14 -15 -14 -14 -14 -14 -13 -13 -13 -13 -13 -13 -13 -13 -13 -12 -12 -12 -12 -11 -12 -12 -11 -11 -12 -12 -12 -12 -12 -12 -12 -13 -13 -13 -13 -13
-20 -19 -18 -17 -17 -17 -16 -16 -15 -16 -15 -14 -14 -14 -14 -13 -13 -13 -13 -13 -13 -13 -13 -13 -12 -12 -12 -12 -12 -12 -12 -12 -11 -12 -12 -12 -12 -12 -12 -12 -13 -13 -13 -14 -14
-20 -19 -18 -17 -17 -16 -16 -16 -16 -15 -14 -14 -14 -14 -14 -14 -14 -13 -14 -14 -13 -13 -13 -13 -12 -13 -12 -12 -12 -12 -12 -12 -12 -12 -12 -12 -12 -12 -12 -12 -12 -13 -13 -14 -14
-20 -19 -18 -18 -17 -17 -17 -16 -16 -16 -15 -14 -14 -14 -14 -14 -14 -14 -14 -14 -14 -14 -13 -13 -13 -13 -13 -12 -12 -12 -12 -12 -12 -12 -12 -12 -12 -13 -13 -13 -12 -12 -13 -13 -14
-19 -19 -19 -18 -17 -17 -16 -17 -16 -16 -15 -15 -15 -14 -14 -14 -14 -14 -14 -13 -13 -14 -14 -14 -13 -13 -13 -13 -13 -12 -12 -12 -12 -12 -12 -12 -12 -13 -13 -13 -12 -13 -13 -13 -14
Height
5808 5811 5813 5815 5818 5819 5821 5823 5825 5826 5826 5827 5827 5828 5828 5828 5829 5828 5827 5826 5823 5820 5819 5817 5817 5816 5815 5814 5813 5813 5812 5811 5809 5807 5805 5803 5800 5797 5794 5791 5787 5782 5777 5773 5768
5800 5803 5806 5809 5811 5814 5816 5818 5819 5821 5822 5823 5824 5824 5824 5825 5825 5825 5824 5822 5820 5817 5816 5815 5815 5814 5813 5812 5811 5811 5810 5808 5806 5804 5802 5799 5796 5793 5790 5787 5782 5775 5768 5762 5757
5794 5796 5799 5802 5804 5807 5810 5812 5814 5816 5817 5818 5819 5820 5821 5821 5821 5821 5820 5818 5816 5815 5813 5813 5812 5811 5811 5810 5809 5809 5807 5805 5803 5800 5798 5794 5792 5790 5786 5782 5775 5769 5761 5753 5748
5785 5789 5792 5795 5798 5800 5803 5806 5808 5810 5812 5813 5814 5815 5816 5817 5819 5817 5816 5815 5813 5812 5811 5810 5809 5808 5808 5808 5807 5806 5805 5803 5800 5797 5794 5792 5790 5787 5783 5778 5769 5761 5755 5750 5743
5777 5782 5785 5788 5791 5794 5797 5800 5802 5804 5807 5808 5810 5811 5812 5813 5813 5813 5812 5811 5810 5809 5808 5807 5807 5806 5806 5806 5805 5804 5804 5801 5798 5795 5793 5791 5789 5786 5781 5774 5765 5756 5747 5740 5735
5768 5773 5777 5781 5784 5787 5790 5793 5796 5798 5800 5803 5804 5806 5807 5809 5808 5808 5808 5807 5806 5805 5804 5804 5804 5804 5804 5804 5803 5803 5802 5799 5796 5794 5792 5790 5788 5784 5779 5771 5762 5751 5741 5735 5730
5758 5763 5768 5773 5776 5780 5783 5786 5789 5792 5794 5797 5799 5800 5802 5804 5804 5803 5804 5803 5803 5802 5800 5801 5801 5802 5802 5802 5801 5802 5800 5798 5795 5794 5791 5790 5787 5783 5778 5770 5762 5751 5739 5732 5727
5747 5752 5759 5763 5768 5772 5775 5780 5782 5785 5789 5791 5793 5795 5797 5799 5799 5799 5799 5799 5799 5798 5797 5798 5798 5799 5800 5800 5800 5800 5799 5797 5795 5793 5791 5790 5786 5782 5777 5769 5762 5752 5742 5732 5725
5737 5742 5748 5754 5759 5763 5767 5772 5775 5778 5782 5784 5787 5789 5792 5793 5795 5795 5794 5794 5794 5794 5793 5795 5795 5796 5797 5798 5799 5798 5798 5796 5794 5792 5791 5789 5785 5781 5777 5771 5763 5754 5746 5736 5725
5724 5732 5737 5744 5749 5754 5759 5763 5767 5771 5775 5777 5780 5785 5787 5788 5790 5790 5790 5790 5790 5789 5790 5791 5792 5794 5795 5796 5797 5797 5796 5795 5794 5792 5790 5788 5784 5780 5776 5771 5764 5756 5748 5739 5729
5712 5719 5727 5733 5739 5744 5750 5755 5760 5764 5768 5770 5774 5777 5780 5783 5785 5785 5785 5785 5785 5786 5786 5788 5790 5791 5792 5793 5794 5795 5795 5794 5793 5790 5788 5785 5783 5780 5777 5772 5765 5758 5751 5742 5732
5699 5707 5714 5721 5728 5733 5739 5745 5750 5756 5759 5763 5766 5770 5773 5776 5778 5780 5780 5781 5780 5781 5783 5785 5786 5789 5790 5791 5792 5793 5793 5793 5792 5788 5786 5784 5782 5780 5777 5772 5766 5760 5753 5745 5735
5687 5695 5702 5708 5715 5722 5729 5735 5741 5747 5750 5756 5759 5763 5767 5771 5772 5774 5775 5776 5775 5777 5778 5781 5784 5785 5787 5789 5790 5791 5792 5792 5791 5787 5785 5783 5782 5779 5776 5772 5767 5763 5757 5748 5740
5674 5682 5690 5695 5704 5710 5719 5726 5733 5738 5740 5747 5751 5755 5761 5764 5767 5768 5769 5771 5771 5772 5774 5777 5780 5782 5784 5786 5788 5789 5790 5790 5790 5787 5785 5783 5782 5778 5775 5771 5768 5764 5757 5751 5743
5662 5670 5678 5684 5691 5699 5709 5715 5721 5729 5728 5738 5742 5750 5754 5757 5760 5761 5762 5763 5765 5768 5771 5774 5776 5778 5781 5783 5785 5787 5787 5788 5789 5786 5784 5782 5780 5778 5774 5770 5768 5763 5758 5752 5747
5651 5658 5665 5673 5680 5687 5695 5702 5710 5717 5715 5723 5732 5741 5746 5750 5752 5754 5756 5758 5760 5762 5765 5768 5772 5774 5777 5779 5782 5783 5785 5785 5786 5785 5783 5780 5779 5776 5773 5769 5766 5763 5758 5753 5750
5639 5646 5654 5661 5669 5675 5682 5690 5696 5700 5710 5716 5723 5734 5738 5742 5745 5747 5749 5752 5754 5757 5761 5764 5767 5770 5773 5776 5778 5780 5782 5783 5784 5784 5784 5781 5779 5777 5774 5769 5766 5763 5759 5755 5751
5628 5634 5640 5650 5656 5663 5670 5675 5681 5693 5701 5708 5716 5724 5729 5734 5737 5740 5742 5744 5747 5751 5755 5759 5762 5766 5770 5773 5774 5776 5778 5779 5780 5781 5781 5780 5778 5776 5772 5769 5766 5763 5759 5756 5751
5617 5618 5630 5638 5644 5651 5656 5659 5673 5682 5691 5699 5705 5715 5720 5725 5729 5732 5735 5738 5741 5745 5750 5753 5757 5760 5764 5768 5771 5772 5775 5777 5778 5778 5779 5779 5776 5774 5771 5769 5765 5762 5759 5756 5752
5602 5610 5617 5627 5630 5635 5642 5651 5663 5672 5677 5687 5697 5705 5711 5716 5720 5723 5726 5730 5734 5738 5743 5748 5751 5755 5759 5763 5766 5768 5772 5774 5775 5776 5776 5777 5776 5774 5771 5768 5765 5763 5760 5757 5753
5588 5594 5604 5613 5618 5620 5629 5643 5651 5662 5666 5677 5686 5694 5701 5706 5710 5715 5718 5724 5727 5731 5736 5741 5746 5750 5753 5758 5761 5764 5767 5770 5772 5773 5773 5774 5774 5772 5769 5766 5765 5763 5759 5755 5751
5570 5580 5587 5597 5604 5609 5620 5633 5641 5648 5655 5665 5675 5684 5690 5696 5700 5705 5710 5715 5718 5723 5729 5734 5738 5742 5748 5751 5755 5758 5762 5764 5768 5770 5771 5770 5771 5770 5770 5768 5765 5763 5761 5760 5755
5558 5565 5569 5581 5586 5601 5612 5619 5629 5636 5645 5656 5667 5674 5680 5686 5690 5695 5701 5706 5711 5716 5720 5726 5729 5734 5738 5744 5749 5754 5757 5760 5762 5764 5766 5768 5768 5768 5768 5766 5763 5761 5760 5758 5756
5541 5544 5553 5564 5578 5592 5599 5609 5618 5626 5636 5644 5654 5663 5670 5675 5680 5686 5693 5699 5704 5707 5712 5717 5723 5728 5736 5742 5746 5749 5752 5754 5757 5760 5762 5763 5763 5763 5764 5765 5764 5761 5760 5758 5757
5524 5530 5548 5559 5571 5583 5590 5599 5608 5616 5625 5634 5644 5653 5660 5665 5671 5677 5684 5690 5695 5700 5704 5710 5716 5722 5726 5731 5736 5740 5743 5748 5751 5753 5756 5757 5759 5759 5759 5760 5760 5759 5758 5756 5754
5511 5521 5537 5550 5557 5567 5578 5587 5597 5608 5617 5626 5636 5644 5649 5654 5661 5668 5675 5681 5687 5693 5697 5703 5709 5714 5718 5722 5727 5731 5736 5741 5744 5748 5751 5751 5753 5754 5755 5755 5755 5755 5755 5754 5753
5497 5516 5527 5534 5545 5555 5568 5581 5592 5600 5607 5616 5623 5630 5638 5645 5651 5658 5664 5669 5675 5681 5687 5694 5700 5705 5709 5714 5717 5719 5731 5735 5740 5742 5745 5748 5747 5750 5751 5751 5750 5750 5751 5750 5749
Wind_Speed
34 33 32 30 29 27 25 23 21 20 18 17 16 16 18 17 18 20 22 20 19 16 12 11 11 13 15 15 15 15 17 19 20 20 20 21 22 23 24 25 29 34 38 41 43
34 34 34 33 31 30 27 25 22 22 21 18 17 18 18 18 18 21 21 20 19 17 14 11 13 14 15 15 14 14 16 17 17 19 23 23 21 20 22 26 32 38 43 45 46
35 34 33 34 33 31 29 27 25 23 22 20 18 18 19 19 19 21 21 20 18 17 15 13 12 14 14 13 12 14 14 15 18 21 22 19 17 18 25 30 36 42 37 30 30
36 35 35 34 34 32 30 28 26 25 23 22 20 19 19 20 20 20 20 19 17 17 16 14 14 14 12 11 11 11 11 15 19 20 19 13 14 22 27 32 30 29 29 31 32
38 37 36 36 35 33 30 29 28 26 25 22 21 20 20 20 20 19 19 18 17 17 15 14 14 13 10 9 9 8 9 16 18 17 10 11 17 21 22 29 29 30 30 29 29
41 39 37 37 36 34 32 30 29 27 25 24 23 22 22 21 20 19 19 19 17 16 14 13 13 11 9 7 7 4 7 12 14 6 7 12 15 20 24 31 40 36 29 23 24
45 41 40 38 37 35 33 31 30 28 26 26 25 23 22 21 20 19 19 21 18 16 13 13 12 10 7 6 4 5 6 8 5 4 9 13 14 21 26 30 36 44 40 28 24
49 45 43 41 39 37 35 34 31 30 28 27 25 24 21 21 21 20 21 19 17 15 13 12 11 10 6 7 5 1 4 5 4 4 7 10 14 20 24 30 35 36 43 37 29
53 49 46 45 42 39 37 36 33 31 31 29 26 24 22 21 21 21 20 18 17 15 13 12 12 9 8 9 6 2 6 5 4 4 5 10 15 18 23 27 33 34 38 42 33
57 55 50 48 45 41 39 37 35 34 33 31 27 25 23 21 21 21 20 18 17 16 13 13 13 9 10 9 7 5 7 10 7 3 4 8 12 16 19 25 31 33 38 42 41
52 57 55 52 49 45 41 39 37 36 35 33 28 26 24 22 22 21 21 18 19 16 15 15 13 11 11 10 9 7 9 8 12 4 3 5 9 13 18 24 29 33 36 40 44
52 51 59 57 52 49 45 40 41 40 38 35 31 28 25 25 24 23 22 20 19 18 17 15 13 13 13 11 9 8 8 5 6 6 1 3 7 12 16 19 23 29 34 40 44
52 46 55 58 56 53 49 46 44 41 39 38 36 31 27 26 24 23 22 22 20 20 18 17 14 15 14 13 9 7 5 4 6 5 4 4 6 10 13 16 20 25 30 34 39
39 47 47 53 59 57 53 50 45 43 45 42 42 35 28 28 25 25 22 23 21 21 20 19 16 16 16 15 10 7 5 1 5 8 8 5 2 7 10 14 19 23 26 30 34
40 43 49 54 55 56 55 54 49 50 44 44 42 35 32 29 27 25 23 24 23 23 22 20 18 18 18 16 12 9 7 5 5 7 6 5 4 4 7 11 15 20 23 25 29
54 53 48 50 53 56 57 58 55 51 57 47 41 37 35 31 28 26 25 24 25 25 24 22 21 20 20 17 15 11 8 6 7 9 9 8 7 1 5 9 11 15 19 21 23
54 56 48 50 50 51 56 58 58 59 57 55 47 38 34 30 29 25 26 27 26 27 26 24 22 23 23 18 16 11 10 10 8 6 5 4 2 5 6 11 13 13 15 18 20
58 51 47 50 47 52 52 59 62 57 56 55 49 40 37 34 32 28 28 29 29 29 28 27 25 25 24 21 18 14 11 14 11 8 5 5 8 7 8 7 8 12 15 17 18
49 53 54 48 48 54 57 61 63 57 56 56 53 44 41 40 33 31 30 29 31 30 31 29 27 28 28 23 22 18 14 15 13 10 6 5 5 5 7 6 7 10 15 18 19
53 45 45 48 52 56 59 63 61 59 60 50 52 44 40 39 37 34 33 32 33 32 32 31 31 32 31 26 24 21 17 15 16 12 9 6 2 3 3 4 5 11 15 19 21
48 50 57 55 53 55 58 57 59 62 59 54 59 54 40 41 39 36 36 33 35 35 34 33 32 33 34 29 28 24 20 18 17 13 11 5 0 2 3 2 3 5 9 13 16
61 59 64 60 64 55 59 57 57 63 68 61 50 48 44 43 40 38 37 36 37 37 35 35 36 36 35 33 31 28 24 21 20 17 13 7 5 6 2 2 3 3 5 6 7
63 62 63 63 64 55 55 55 59 58 57 58 55 49 47 44 41 39 39 38 39 38 39 39 40 39 42 39 34 30 25 24 23 21 14 9 7 7 5 5 5 5 4 3 5
77 67 60 62 61 55 55 58 56 56 54 51 50 45 44 44 41 40 40 40 40 41 41 41 39 40 39 37 33 31 28 29 26 22 19 15 12 9 7 7 8 5 4 4 7
76 76 64 60 57 55 54 57 52 52 51 49 47 43 43 43 40 41 43 41 42 41 42 42 40 40 41 42 40 38 36 35 29 27 23 20 17 14 10 8 10 8 6 6 4
74 75 67 60 58 57 57 57 51 49 50 52 48 44 45 44 42 43 43 45 42 40 42 42 41 42 43 44 46 43 41 38 35 30 26 24 21 18 15 11 11 11 9 8 5
62 74 71 65 61 61 54 50 47 51 49 51 49 51 49 45 44 45 48 47 50 49 45 43 42 44 45 45 47 51 42 41 36 33 32 26 27 22 17 16 13 14 11 10 8
Wind_Direction
243 242 241 243 247 251 254 257 260 262 264 268 272 276 283 289 299 312 318 320 323 318 303 292 288 290 292 294 293 294 299 306 304 303 307 310 312 310 307 306 304 298 294 292 287
242 241 243 243 244 249 252 254 255 257 262 265 268 271 276 284 293 306 310 315 322 317 302 292 290 292 291 290 291 298 307 303 304 307 314 316 313 312 316 311 305 301 298 294 293
244 241 240 244 243 244 248 250 251 253 258 262 264 266 272 280 290 301 308 311 316 313 300 290 288 289 292 291 296 307 303 307 313 317 318 316 322 325 317 313 310 308 310 310 311
243 244 242 239 243 241 244 247 248 251 253 258 260 262 268 278 290 301 303 308 308 309 299 287 287 291 292 293 309 300 311 313 317 321 319 326 334 330 329 325 330 334 322 307 310
241 243 244 242 239 241 240 243 245 247 253 254 256 258 264 275 286 294 297 307 309 306 295 285 287 290 285 299 299 301 317 317 322 325 331 348 345 347 353 351 348 345 325 315 318
239 240 242 243 243 241 241 241 245 246 247 251 252 257 264 272 281 285 291 303 302 302 292 283 284 280 278 296 288 313 325 320 327 335 3 350 357 353 3 2 15 2 351 344 341
236 237 238 240 242 242 242 241 243 244 245 247 251 256 263 270 275 280 290 299 296 294 284 279 279 268 277 274 270 293 340 330 328 347 17 2 4 1 10 20 14 17 13 358 352
236 234 237 236 238 240 241 241 241 243 243 245 250 255 259 266 273 282 291 293 289 285 276 274 268 258 267 253 243 271 13 5 347 32 19 9 12 10 18 18 15 21 25 10 347
238 233 235 236 235 237 238 239 240 241 243 245 248 252 256 262 272 284 290 286 281 275 265 263 255 251 254 233 227 222 71 55 53 62 23 17 22 18 16 19 21 18 21 26 9
232 235 231 235 234 234 236 237 239 241 242 243 244 249 254 257 273 282 289 280 272 263 251 251 247 244 246 226 218 182 102 88 88 72 31 17 27 14 17 16 22 25 21 25 28
226 230 233 232 233 232 234 236 237 239 242 241 240 244 249 255 269 279 283 275 269 252 241 240 239 240 235 219 209 175 112 97 91 102 47 2 13 11 11 16 18 22 22 24 29
225 225 230 232 231 233 232 232 239 238 241 241 239 239 245 256 264 278 278 273 267 243 236 234 231 233 226 214 214 188 127 102 123 142 181 348 360 7 10 11 13 18 22 26 28
232 234 224 229 232 232 233 231 232 240 239 242 239 237 241 256 266 273 272 271 257 237 232 229 223 228 221 213 212 191 145 63 193 207 243 294 13 5 6 1 4 18 20 21 25
215 234 240 224 229 233 234 235 233 235 239 243 239 236 242 254 266 272 264 260 249 234 229 225 220 225 215 212 208 189 189 170 225 252 244 257 329 353 351 353 2 8 9 15 24
227 226 228 229 229 229 232 234 233 233 245 241 238 240 244 253 264 265 251 249 240 230 227 220 216 221 208 214 211 195 205 206 220 197 212 237 268 317 325 341 3 358 0 6 17
240 230 232 239 227 225 228 232 232 231 237 240 240 238 245 249 260 256 245 244 233 226 223 219 216 215 205 211 208 195 207 206 223 230 237 232 262 304 312 313 342 348 359 359 8
241 236 240 228 226 224 224 231 231 232 236 239 244 241 242 249 251 246 241 238 232 228 223 219 216 212 203 207 203 195 206 209 218 245 244 167 131 59 25 320 323 352 4 9 8
237 235 228 222 227 227 226 224 234 235 237 242 242 242 246 252 246 242 237 235 228 223 219 217 216 208 204 205 200 198 207 207 214 228 210 152 99 85 74 40 24 37 40 35 28
228 236 234 236 228 222 226 228 224 231 235 239 243 244 246 249 243 238 235 233 226 219 220 218 216 207 204 204 200 201 214 206 205 210 200 175 126 90 70 60 56 53 62 58 53
224 229 231 231 233 224 222 225 227 229 232 232 233 238 244 246 239 237 231 228 222 219 219 216 216 207 204 204 201 201 208 208 208 207 193 172 89 69 60 40 76 75 68 72 71
224 224 226 223 230 233 226 222 226 225 231 232 240 240 242 240 238 234 230 226 222 219 218 216 218 212 206 203 207 203 208 212 208 198 177 180 155 323 287 276 347 67 95 97 94
222 227 224 223 231 234 222 220 224 225 231 233 226 236 245 237 233 230 228 225 219 215 218 219 218 215 208 207 208 208 208 212 208 194 191 197 227 265 297 265 322 325 352 36 57
212 221 228 222 230 227 220 222 224 227 229 230 236 234 232 231 228 228 224 222 219 215 217 217 218 216 211 208 207 209 209 204 199 197 212 223 224 264 261 215 255 278 307 322 15
219 222 227 220 224 224 223 218 223 226 224 224 221 221 224 227 225 224 222 221 220 217 218 218 218 220 217 214 210 212 212 202 201 210 214 224 221 222 274 270 251 270 286 291 323
222 224 227 224 221 221 222 217 222 225 221 215 215 221 225 224 223 221 219 218 219 218 217 218 218 218 218 213 213 212 213 206 209 214 221 226 228 233 239 264 263 254 259 265 270
227 220 222 220 220 219 223 218 219 218 219 221 219 224 228 222 217 217 217 216 217 216 219 220 219 219 219 216 216 216 216 213 215 221 224 234 236 243 248 253 273 273 273 276 261
223 221 219 227 221 219 218 218 221 217 213 216 219 218 221 219 216 215 216 216 218 214 217 221 222 222 222 221 220 219 218 220 222 227 230 236 243 245 259 273 278 271 275 277 275